Time,TemperatureF,DewpointF,PressureIn,WindDirection,WindDirectionDegrees,WindSpeedMPH,WindSpeedGustMPH,Humidity,HourlyPrecipIn,Conditions,Clouds,dailyrainin,SoftwareType,DateUTC
2013-02-13 00:02:00,23.0,17.2,29.91,North,-999,-999.0,-999.0,78,0.00,,,0.00,meteohub,2013-02-13 06:02:00,
2013-02-13 00:07:00,23.0,17.2,29.91,North,-999,-999.0,-999.0,78,0.00,,,0.00,meteohub,2013-02-13 06:07:00,
2013-02-13 00:12:00,23.0,17.2,29.91,North,-999,-999.0,-999.0,78,0.00,,,0.00,meteohub,2013-02-13 06:12:00,
2013-02-13 00:17:00,23.2,17.4,29.91,North,-999,-999.0,-999.0,78,0.00,,,0.00,meteohub,2013-02-13 06:17:00,
2013-02-13 00:22:00,23.2,17.4,29.91,North,-999,-999.0,-999.0,78,0.00,,,0.00,meteohub,2013-02-13 06:22:00,
2013-02-13 00:27:00,23.0,17.2,29.91,North,-999,-999.0,-999.0,78,0.00,,,0.00,meteohub,2013-02-13 06:27:00,
2013-02-13 00:32:00,22.8,17.2,29.91,North,-999,-999.0,-999.0,79,0.00,,,0.00,meteohub,2013-02-13 06:32:00,
2013-02-13 00:37:00,22.6,17.1,29.91,North,-999,-999.0,-999.0,79,0.00,,,0.00,meteohub,2013-02-13 06:37:00,
2013-02-13 00:42:00,22.6,17.1,29.91,North,-999,-999.0,-999.0,79,0.00,,,0.00,meteohub,2013-02-13 06:42:00,
2013-02-13 00:47:00,22.3,16.7,29.91,North,-999,-999.0,-999.0,79,0.00,,,0.00,meteohub,2013-02-13 06:47:00,
2013-02-13 00:52:00,22.3,16.7,29.90,North,-999,-999.0,-999.0,79,0.00,,,0.00,meteohub,2013-02-13 06:52:00,
2013-02-13 00:57:00,22.1,16.5,29.90,North,-999,-999.0,-999.0,79,0.00,,,0.00,meteohub,2013-02-13 06:57:00,
2013-02-13 01:02:00,22.1,16.5,29.90,North,-999,-999.0,-999.0,79,0.00,,,0.00,meteohub,2013-02-13 07:02:00,
2013-02-13 01:07:00,22.1,16.9,29.90,North,-999,-999.0,-999.0,80,0.00,,,0.00,meteohub,2013-02-13 07:07:00,
2013-02-13 01:12:00,22.1,16.9,29.90,North,-999,-999.0,-999.0,80,0.00,,,0.00,meteohub,2013-02-13 07:12:00,
2013-02-13 01:17:00,22.1,16.9,29.90,North,-999,-999.0,-999.0,80,0.00,,,0.00,meteohub,2013-02-13 07:17:00,
2013-02-13 01:22:00,22.3,17.4,29.90,North,-999,-999.0,-999.0,81,0.00,,,0.00,meteohub,2013-02-13 07:22:00,
2013-02-13 01:27:00,22.3,17.4,29.90,North,-999,-999.0,-999.0,81,0.00,,,0.00,meteohub,2013-02-13 07:27:00,
2013-02-13 01:32:00,22.3,17.4,29.90,North,-999,-999.0,-999.0,81,0.00,,,0.00,meteohub,2013-02-13 07:32:00,
2013-02-13 01:37:00,22.3,17.4,29.89,North,-999,-999.0,-999.0,81,0.00,,,0.00,meteohub,2013-02-13 07:37:00,
2013-02-13 01:42:00,22.3,17.4,29.88,North,-999,-999.0,-999.0,81,0.00,,,0.00,meteohub,2013-02-13 07:42:00,
2013-02-13 01:47:00,22.3,17.4,29.89,North,-999,-999.0,-999.0,81,0.00,,,0.00,meteohub,2013-02-13 07:47:00,
2013-02-13 01:52:00,22.1,17.2,29.89,North,-999,-999.0,-999.0,81,0.00,,,0.00,meteohub,2013-02-13 07:52:00,
2013-02-13 01:57:00,22.1,17.2,29.89,North,-999,-999.0,-999.0,81,0.00,,,0.00,meteohub,2013-02-13 07:57:00,
2013-02-13 02:02:00,22.1,17.2,29.88,North,-999,-999.0,-999.0,81,0.00,,,0.00,meteohub,2013-02-13 08:02:00,
2013-02-13 02:07:00,21.9,17.1,29.88,North,-999,-999.0,-999.0,81,0.00,,,0.00,meteohub,2013-02-13 08:07:00,
2013-02-13 02:12:00,21.9,17.1,29.88,North,-999,-999.0,-999.0,81,0.00,,,0.00,meteohub,2013-02-13 08:12:00,
2013-02-13 02:17:00,21.9,17.1,29.88,North,-999,-999.0,-999.0,81,0.00,,,0.00,meteohub,2013-02-13 08:17:00,
2013-02-13 02:22:00,22.1,17.2,29.87,North,-999,-999.0,-999.0,81,0.00,,,0.00,meteohub,2013-02-13 08:22:00,
2013-02-13 02:27:00,22.1,17.2,29.87,North,-999,-999.0,-999.0,81,0.00,,,0.00,meteohub,2013-02-13 08:27:00,
2013-02-13 02:37:00,22.1,17.4,29.87,North,-999,-999.0,-999.0,82,0.00,,,0.00,meteohub,2013-02-13 08:37:00,
2013-02-13 02:42:00,22.3,17.6,29.86,North,-999,-999.0,-999.0,82,0.00,,,0.00,meteohub,2013-02-13 08:42:00,
2013-02-13 02:47:00,22.8,18.1,29.86,North,-999,-999.0,-999.0,82,0.00,,,0.00,meteohub,2013-02-13 08:47:00,
2013-02-13 02:52:00,23.0,18.0,29.86,North,-999,-999.0,-999.0,81,0.00,,,0.00,meteohub,2013-02-13 08:52:00,
2013-02-13 02:57:00,23.2,18.1,29.86,North,-999,-999.0,-999.0,81,0.00,,,0.00,meteohub,2013-02-13 08:57:00,
2013-02-13 03:02:00,23.4,18.3,29.85,North,-999,-999.0,-999.0,81,0.00,,,0.00,meteohub,2013-02-13 09:02:00,
2013-02-13 03:07:00,23.5,18.5,29.85,North,-999,-999.0,-999.0,81,0.00,,,0.00,meteohub,2013-02-13 09:07:00,
2013-02-13 03:12:00,23.5,18.5,29.85,North,-999,-999.0,-999.0,81,0.00,,,0.00,meteohub,2013-02-13 09:12:00,
2013-02-13 03:17:00,23.7,18.7,29.85,North,-999,-999.0,-999.0,81,0.00,,,0.00,meteohub,2013-02-13 09:17:00,
2013-02-13 03:22:00,23.7,18.5,29.85,North,-999,-999.0,-999.0,80,0.00,,,0.00,meteohub,2013-02-13 09:22:00,
2013-02-13 03:27:00,23.7,18.5,29.85,North,-999,-999.0,-999.0,80,0.00,,,0.00,meteohub,2013-02-13 09:27:00,
2013-02-13 03:32:00,23.7,18.5,29.85,North,-999,-999.0,-999.0,80,0.00,,,0.00,meteohub,2013-02-13 09:32:00,
2013-02-13 03:37:00,23.7,18.5,29.85,North,-999,-999.0,-999.0,80,0.00,,,0.00,meteohub,2013-02-13 09:37:00,
2013-02-13 03:42:00,23.7,18.5,29.84,North,-999,-999.0,-999.0,80,0.00,,,0.00,meteohub,2013-02-13 09:42:00,
2013-02-13 03:47:00,23.7,18.5,29.84,North,-999,-999.0,-999.0,80,0.00,,,0.00,meteohub,2013-02-13 09:47:00,
2013-02-13 03:52:00,23.7,18.5,29.84,North,-999,-999.0,-999.0,80,0.00,,,0.00,meteohub,2013-02-13 09:52:00,
2013-02-13 03:57:00,23.7,18.5,29.84,North,-999,-999.0,-999.0,80,0.00,,,0.00,meteohub,2013-02-13 09:57:00,
2013-02-13 04:02:00,23.5,18.3,29.84,North,-999,-999.0,-999.0,80,0.00,,,0.00,meteohub,2013-02-13 10:02:00,
2013-02-13 04:07:00,23.4,18.1,29.84,North,-999,-999.0,-999.0,80,0.00,,,0.00,meteohub,2013-02-13 10:07:00,
2013-02-13 04:12:00,23.5,18.3,29.84,North,-999,-999.0,-999.0,80,0.00,,,0.00,meteohub,2013-02-13 10:12:00,
2013-02-13 04:17:00,23.5,18.3,29.83,North,-999,-999.0,-999.0,80,0.00,,,0.00,meteohub,2013-02-13 10:17:00,
2013-02-13 04:22:00,23.5,18.3,29.83,North,-999,-999.0,-999.0,80,0.00,,,0.00,meteohub,2013-02-13 10:22:00,
2013-02-13 04:27:00,23.5,18.3,29.83,North,-999,-999.0,-999.0,80,0.00,,,0.00,meteohub,2013-02-13 10:27:00,
2013-02-13 04:32:00,23.4,18.1,29.83,North,-999,-999.0,-999.0,80,0.00,,,0.00,meteohub,2013-02-13 10:32:00,
2013-02-13 04:37:00,23.4,18.1,29.83,North,-999,-999.0,-999.0,80,0.00,,,0.00,meteohub,2013-02-13 10:37:00,
2013-02-13 04:42:00,23.2,18.0,29.83,North,-999,-999.0,-999.0,80,0.00,,,0.00,meteohub,2013-02-13 10:42:00,
2013-02-13 04:47:00,23.0,17.8,29.83,North,-999,-999.0,-999.0,80,0.00,,,0.00,meteohub,2013-02-13 10:47:00,
2013-02-13 04:52:00,22.8,18.0,29.83,North,-999,-999.0,-999.0,81,0.00,,,0.00,meteohub,2013-02-13 10:52:00,
2013-02-13 04:57:00,22.6,17.8,29.83,North,-999,-999.0,-999.0,81,0.00,,,0.00,meteohub,2013-02-13 10:57:00,
2013-02-13 05:02:00,22.5,17.6,29.83,WSW,248,0.0,-999.0,81,0.00,,,0.00,meteohub,2013-02-13 11:02:00,
2013-02-13 05:07:00,22.3,17.4,29.83,WSW,248,0.0,0.0,81,0.00,,,0.00,meteohub,2013-02-13 11:07:00,
2013-02-13 05:12:00,22.3,17.4,29.83,North,-999,-999.0,0.0,81,0.00,,,0.00,meteohub,2013-02-13 11:12:00,
2013-02-13 05:17:00,22.1,17.2,29.83,North,-999,-999.0,0.0,81,0.00,,,0.00,meteohub,2013-02-13 11:17:00,
2013-02-13 05:22:00,22.1,17.2,29.82,North,-999,-999.0,-999.0,81,0.00,,,0.00,meteohub,2013-02-13 11:22:00,
2013-02-13 05:27:00,21.9,17.1,29.82,North,-999,-999.0,-999.0,81,0.00,,,0.00,meteohub,2013-02-13 11:27:00,
2013-02-13 05:32:00,21.7,16.9,29.82,North,-999,-999.0,-999.0,81,0.00,,,0.00,meteohub,2013-02-13 11:32:00,
2013-02-13 05:37:00,21.6,16.9,29.82,North,-999,-999.0,-999.0,82,0.00,,,0.00,meteohub,2013-02-13 11:37:00,
2013-02-13 05:42:00,21.4,16.7,29.81,North,-999,-999.0,-999.0,82,0.00,,,0.00,meteohub,2013-02-13 11:42:00,
2013-02-13 05:47:00,21.2,16.5,29.81,North,-999,-999.0,-999.0,82,0.00,,,0.00,meteohub,2013-02-13 11:47:00,
2013-02-13 05:52:00,21.0,16.7,29.81,North,-999,-999.0,-999.0,83,0.00,,,0.00,meteohub,2013-02-13 11:52:00,
2013-02-13 05:57:00,20.8,16.5,29.82,North,-999,-999.0,-999.0,83,0.00,,,0.00,meteohub,2013-02-13 11:57:00,
2013-02-13 06:02:00,20.8,16.5,29.81,North,-999,-999.0,-999.0,83,0.00,,,0.00,meteohub,2013-02-13 12:02:00,
2013-02-13 06:07:00,20.7,16.3,29.82,North,-999,-999.0,-999.0,83,0.00,,,0.00,meteohub,2013-02-13 12:07:00,
2013-02-13 06:12:00,20.5,16.2,29.81,North,-999,-999.0,-999.0,83,0.00,,,0.00,meteohub,2013-02-13 12:12:00,
2013-02-13 06:17:00,20.3,16.0,29.81,North,-999,-999.0,-999.0,83,0.00,,,0.00,meteohub,2013-02-13 12:17:00,
2013-02-13 06:22:00,20.1,15.4,29.81,North,-999,-999.0,-999.0,82,0.00,,,0.00,meteohub,2013-02-13 12:22:00,
2013-02-13 06:27:00,19.9,15.3,29.81,North,-999,-999.0,-999.0,82,0.00,,,0.00,meteohub,2013-02-13 12:27:00,
2013-02-13 06:32:00,19.8,15.1,29.81,North,-999,-999.0,-999.0,82,0.00,,,0.00,meteohub,2013-02-13 12:32:00,
2013-02-13 06:37:00,19.8,15.1,29.81,North,-999,-999.0,-999.0,82,0.00,,,0.00,meteohub,2013-02-13 12:37:00,
2013-02-13 06:42:00,19.8,15.1,29.81,North,-999,-999.0,-999.0,82,0.00,,,0.00,meteohub,2013-02-13 12:42:00,
2013-02-13 06:47:00,19.6,14.9,29.81,North,-999,-999.0,-999.0,82,0.00,,,0.00,meteohub,2013-02-13 12:47:00,
2013-02-13 06:52:00,19.2,13.5,29.81,North,-999,-999.0,-999.0,78,0.00,,,0.00,meteohub,2013-02-13 12:52:00,
2013-02-13 06:57:00,19.0,13.3,29.81,North,-999,-999.0,-999.0,78,0.00,,,0.00,meteohub,2013-02-13 12:57:00,
2013-02-13 07:02:00,18.9,13.1,29.81,North,-999,-999.0,-999.0,78,0.00,,,0.00,meteohub,2013-02-13 13:02:00,
2013-02-13 07:07:00,18.7,12.9,29.81,North,-999,-999.0,-999.0,78,0.00,,,0.00,meteohub,2013-02-13 13:07:00,
2013-02-13 07:12:00,18.5,12.7,29.81,North,-999,-999.0,-999.0,78,0.00,,,0.00,meteohub,2013-02-13 13:12:00,
2013-02-13 07:17:00,18.5,12.7,29.81,North,-999,-999.0,-999.0,78,0.00,,,0.00,meteohub,2013-02-13 13:17:00,
2013-02-13 07:22:00,18.5,12.7,29.81,SW,225,0.0,-999.0,78,0.00,,,0.00,meteohub,2013-02-13 13:22:00,
2013-02-13 07:27:00,18.9,13.1,29.81,SW,225,0.0,0.0,78,0.00,,,0.00,meteohub,2013-02-13 13:27:00,
2013-02-13 07:32:00,19.4,15.1,29.81,North,-999,-999.0,0.0,83,0.00,,,0.00,meteohub,2013-02-13 13:32:00,
2013-02-13 07:37:00,19.8,15.4,29.81,North,-999,-999.0,0.0,83,0.00,,,0.00,meteohub,2013-02-13 13:37:00,
2013-02-13 07:42:00,20.3,16.0,29.81,North,-999,-999.0,0.0,83,0.00,,,0.00,meteohub,2013-02-13 13:42:00,
2013-02-13 07:47:00,20.8,16.7,29.81,North,-999,-999.0,-999.0,84,0.00,,,0.00,meteohub,2013-02-13 13:47:00,
2013-02-13 07:52:00,21.4,17.1,29.81,North,-999,-999.0,-999.0,83,0.00,,,0.00,meteohub,2013-02-13 13:52:00,
2013-02-13 07:57:00,21.6,17.2,29.81,North,-999,-999.0,-999.0,83,0.00,,,0.00,meteohub,2013-02-13 13:57:00,
2013-02-13 08:02:00,21.9,17.6,29.81,North,-999,-999.0,-999.0,83,0.00,,,0.00,meteohub,2013-02-13 14:02:00,
2013-02-13 08:07:00,21.9,17.6,29.81,North,-999,-999.0,-999.0,83,0.00,,,0.00,meteohub,2013-02-13 14:07:00,
2013-02-13 08:12:00,22.1,17.8,29.81,North,-999,-999.0,-999.0,83,0.00,,,0.00,meteohub,2013-02-13 14:12:00,
2013-02-13 08:17:00,23.2,18.5,29.81,North,-999,-999.0,-999.0,82,0.00,,,0.00,meteohub,2013-02-13 14:17:00,
2013-02-13 08:22:00,23.4,18.7,29.81,North,-999,-999.0,-999.0,82,0.00,,,0.00,meteohub,2013-02-13 14:22:00,
2013-02-13 08:27:00,24.1,19.0,29.80,North,-999,-999.0,-999.0,81,0.00,,,0.00,meteohub,2013-02-13 14:27:00,
2013-02-13 08:32:00,25.3,20.1,29.80,North,-999,-999.0,-999.0,80,0.00,,,0.00,meteohub,2013-02-13 14:32:00,
2013-02-13 08:37:00,25.2,19.2,29.80,North,-999,-999.0,-999.0,78,0.00,,,0.00,meteohub,2013-02-13 14:37:00,
2013-02-13 08:42:00,25.5,19.0,29.80,North,-999,-999.0,-999.0,76,0.00,,,0.00,meteohub,2013-02-13 14:42:00,
2013-02-13 08:47:00,26.6,19.4,29.80,North,-999,-999.0,-999.0,74,0.00,,,0.00,meteohub,2013-02-13 14:47:00,
2013-02-13 08:52:00,27.3,19.6,29.80,North,-999,-999.0,-999.0,72,0.00,,,0.00,meteohub,2013-02-13 14:52:00,
2013-02-13 08:57:00,27.1,19.0,29.80,North,-999,-999.0,-999.0,71,0.00,,,0.00,meteohub,2013-02-13 14:57:00,
2013-02-13 09:02:00,27.9,19.8,29.79,North,-999,-999.0,-999.0,71,0.00,,,0.00,meteohub,2013-02-13 15:02:00,
2013-02-13 09:07:00,29.5,22.3,29.78,North,-999,-999.0,-999.0,74,0.00,,,0.00,meteohub,2013-02-13 15:07:00,
2013-02-13 09:12:00,30.0,22.1,29.78,North,-999,-999.0,-999.0,72,0.00,,,0.00,meteohub,2013-02-13 15:12:00,
2013-02-13 09:17:00,29.8,21.6,29.78,North,-999,-999.0,-999.0,71,0.00,,,0.00,meteohub,2013-02-13 15:17:00,
2013-02-13 09:22:00,29.7,21.4,29.78,North,-999,-999.0,-999.0,71,0.00,,,0.00,meteohub,2013-02-13 15:22:00,
2013-02-13 09:27:00,29.7,21.4,29.78,North,-999,-999.0,-999.0,71,0.00,,,0.00,meteohub,2013-02-13 15:27:00,
2013-02-13 09:32:00,30.0,21.7,29.78,North,-999,-999.0,-999.0,71,0.00,,,0.00,meteohub,2013-02-13 15:32:00,
2013-02-13 09:37:00,30.4,21.7,29.78,North,-999,-999.0,-999.0,70,0.00,,,0.00,meteohub,2013-02-13 15:37:00,
2013-02-13 09:42:00,31.6,23.0,29.77,North,-999,-999.0,-999.0,70,0.00,,,0.00,meteohub,2013-02-13 15:42:00,
2013-02-13 09:47:00,32.7,23.0,29.77,North,-999,-999.0,-999.0,67,0.00,,,0.00,meteohub,2013-02-13 15:47:00,
2013-02-13 09:52:00,32.9,22.1,29.77,North,-999,-999.0,-999.0,64,0.00,,,0.00,meteohub,2013-02-13 15:52:00,
2013-02-13 09:57:00,33.4,22.6,29.77,North,-999,-999.0,-999.0,64,0.00,,,0.00,meteohub,2013-02-13 15:57:00,
2013-02-13 10:02:00,33.1,21.9,29.77,North,-999,-999.0,-999.0,63,0.00,,,0.00,meteohub,2013-02-13 16:02:00,
2013-02-13 10:07:00,32.5,21.4,29.77,North,-999,-999.0,-999.0,63,0.00,,,0.00,meteohub,2013-02-13 16:07:00,
2013-02-13 10:12:00,33.3,22.5,29.77,North,-999,-999.0,-999.0,64,0.00,,,0.00,meteohub,2013-02-13 16:12:00,
2013-02-13 10:17:00,32.7,21.9,29.77,North,-999,-999.0,-999.0,64,0.00,,,0.00,meteohub,2013-02-13 16:17:00,
2013-02-13 10:22:00,32.9,22.5,29.77,North,-999,-999.0,-999.0,65,0.00,,,0.00,meteohub,2013-02-13 16:22:00,
2013-02-13 10:27:00,33.1,22.6,29.77,North,-999,-999.0,-999.0,65,0.00,,,0.00,meteohub,2013-02-13 16:27:00,
2013-02-13 10:32:00,34.2,22.8,29.77,South,180,0.0,-999.0,63,0.00,,,0.00,meteohub,2013-02-13 16:32:00,
2013-02-13 10:37:00,34.7,23.0,29.77,SW,225,0.0,0.0,62,0.00,,,0.00,meteohub,2013-02-13 16:37:00,
2013-02-13 10:42:00,35.1,23.0,29.77,SSW,203,0.0,0.0,61,0.00,,,0.00,meteohub,2013-02-13 16:42:00,
2013-02-13 10:47:00,35.2,23.2,29.77,SSW,203,0.0,0.0,61,0.00,,,0.00,meteohub,2013-02-13 16:47:00,
2013-02-13 10:52:00,35.4,23.4,29.77,North,-999,-999.0,0.0,61,0.00,,,0.00,meteohub,2013-02-13 16:52:00,
2013-02-13 10:57:00,35.1,22.6,29.77,North,-999,-999.0,0.0,60,0.00,,,0.00,meteohub,2013-02-13 16:57:00,
2013-02-13 11:02:00,35.4,23.4,29.77,North,-999,-999.0,-999.0,61,0.00,,,0.00,meteohub,2013-02-13 17:02:00,
2013-02-13 11:07:00,36.0,23.4,29.77,North,-999,-999.0,-999.0,60,0.00,,,0.00,meteohub,2013-02-13 17:07:00,
2013-02-13 11:12:00,36.9,23.9,29.76,North,-999,-999.0,-999.0,59,0.00,,,0.00,meteohub,2013-02-13 17:12:00,
2013-02-13 11:17:00,37.0,23.7,29.76,North,-999,-999.0,-999.0,58,0.00,,,0.00,meteohub,2013-02-13 17:17:00,
2013-02-13 11:22:00,37.2,23.7,29.76,North,-999,-999.0,-999.0,58,0.00,,,0.00,meteohub,2013-02-13 17:22:00,
2013-02-13 11:27:00,37.4,25.5,29.76,North,-999,-999.0,-999.0,62,0.00,,,0.00,meteohub,2013-02-13 17:27:00,
2013-02-13 11:32:00,38.5,26.6,29.75,North,-999,-999.0,-999.0,62,0.00,,,0.00,meteohub,2013-02-13 17:32:00,
2013-02-13 11:37:00,38.5,26.2,29.75,North,-999,-999.0,-999.0,61,0.00,,,0.00,meteohub,2013-02-13 17:37:00,
2013-02-13 11:42:00,40.3,27.1,29.75,North,-999,-999.0,-999.0,59,0.00,,,0.00,meteohub,2013-02-13 17:42:00,
2013-02-13 11:47:00,41.0,26.1,29.75,North,-999,-999.0,-999.0,55,0.00,,,0.00,meteohub,2013-02-13 17:47:00,
2013-02-13 11:52:00,39.9,25.0,29.75,North,-999,-999.0,-999.0,55,0.00,,,0.00,meteohub,2013-02-13 17:52:00,
2013-02-13 11:57:00,39.9,25.5,29.74,North,-999,-999.0,-999.0,56,0.00,,,0.00,meteohub,2013-02-13 17:57:00,
2013-02-13 12:02:00,40.8,26.4,29.74,North,-999,-999.0,-999.0,56,0.00,,,0.00,meteohub,2013-02-13 18:02:00,
2013-02-13 12:07:00,40.6,25.7,29.74,North,-999,-999.0,-999.0,55,0.00,,,0.00,meteohub,2013-02-13 18:07:00,
2013-02-13 12:12:00,41.0,25.7,29.73,North,-999,-999.0,-999.0,54,0.00,,,0.00,meteohub,2013-02-13 18:12:00,
2013-02-13 12:17:00,41.2,25.3,29.73,North,-999,-999.0,-999.0,53,0.00,,,0.00,meteohub,2013-02-13 18:17:00,
2013-02-13 12:22:00,41.4,25.5,29.73,North,-999,-999.0,-999.0,53,0.00,,,0.00,meteohub,2013-02-13 18:22:00,
2013-02-13 12:27:00,41.5,25.7,29.73,North,-999,-999.0,-999.0,53,0.00,,,0.00,meteohub,2013-02-13 18:27:00,
2013-02-13 12:32:00,41.7,25.3,29.72,North,-999,-999.0,-999.0,52,0.00,,,0.00,meteohub,2013-02-13 18:32:00,
2013-02-13 12:37:00,42.1,25.7,29.72,North,-999,-999.0,-999.0,52,0.00,,,0.00,meteohub,2013-02-13 18:37:00,
2013-02-13 12:42:00,42.1,25.7,29.72,North,-999,-999.0,-999.0,52,0.00,,,0.00,meteohub,2013-02-13 18:42:00,
2013-02-13 12:47:00,42.3,25.3,29.71,North,-999,-999.0,-999.0,51,0.00,,,0.00,meteohub,2013-02-13 18:47:00,
2013-02-13 12:52:00,42.8,25.5,29.71,North,-999,-999.0,-999.0,50,0.00,,,0.00,meteohub,2013-02-13 18:52:00,
2013-02-13 12:57:00,42.8,25.5,29.71,North,-999,-999.0,-999.0,50,0.00,,,0.00,meteohub,2013-02-13 18:57:00,
2013-02-13 13:02:00,42.6,25.3,29.71,North,-999,-999.0,-999.0,50,0.00,,,0.00,meteohub,2013-02-13 19:02:00,
2013-02-13 13:07:00,43.0,25.7,29.71,North,-999,-999.0,-999.0,50,0.00,,,0.00,meteohub,2013-02-13 19:07:00,
2013-02-13 13:12:00,42.8,25.0,29.70,North,-999,-999.0,-999.0,49,0.00,,,0.00,meteohub,2013-02-13 19:12:00,
2013-02-13 13:17:00,43.5,25.7,29.70,North,-999,-999.0,-999.0,49,0.00,,,0.00,meteohub,2013-02-13 19:17:00,
2013-02-13 13:22:00,43.3,25.5,29.70,North,-999,-999.0,-999.0,49,0.00,,,0.00,meteohub,2013-02-13 19:22:00,
2013-02-13 13:27:00,43.3,25.5,29.70,North,-999,-999.0,-999.0,49,0.00,,,0.00,meteohub,2013-02-13 19:27:00,
2013-02-13 13:32:00,43.3,25.0,29.70,North,-999,-999.0,-999.0,48,0.00,,,0.00,meteohub,2013-02-13 19:32:00,
2013-02-13 13:37:00,42.8,25.0,29.70,North,-999,-999.0,-999.0,49,0.00,,,0.00,meteohub,2013-02-13 19:37:00,
2013-02-13 13:42:00,43.0,25.2,29.70,North,-999,-999.0,-999.0,49,0.00,,,0.00,meteohub,2013-02-13 19:42:00,
2013-02-13 13:47:00,42.8,24.4,29.70,North,-999,-999.0,-999.0,48,0.00,,,0.00,meteohub,2013-02-13 19:47:00,
2013-02-13 13:52:00,42.8,24.4,29.70,North,-999,-999.0,-999.0,48,0.00,,,0.00,meteohub,2013-02-13 19:52:00,
2013-02-13 13:57:00,43.0,25.2,29.69,North,-999,-999.0,-999.0,49,0.00,,,0.00,meteohub,2013-02-13 19:57:00,
2013-02-13 14:02:00,42.3,25.0,29.70,North,-999,-999.0,-999.0,50,0.00,,,0.00,meteohub,2013-02-13 20:02:00,
2013-02-13 14:07:00,42.1,24.8,29.69,North,-999,-999.0,-999.0,50,0.00,,,0.00,meteohub,2013-02-13 20:07:00,
2013-02-13 14:12:00,42.1,25.3,29.69,North,-999,-999.0,-999.0,51,0.00,,,0.00,meteohub,2013-02-13 20:12:00,
2013-02-13 14:17:00,41.9,24.6,29.69,North,-999,-999.0,-999.0,50,0.00,,,0.00,meteohub,2013-02-13 20:17:00,
2013-02-13 14:22:00,41.2,24.4,29.70,North,-999,-999.0,-999.0,51,0.00,,,0.00,meteohub,2013-02-13 20:22:00,
2013-02-13 14:27:00,41.2,24.4,29.70,North,-999,-999.0,-999.0,51,0.00,,,0.00,meteohub,2013-02-13 20:27:00,
2013-02-13 14:32:00,41.0,24.3,29.70,North,-999,-999.0,-999.0,51,0.00,,,0.00,meteohub,2013-02-13 20:32:00,
2013-02-13 14:37:00,40.6,24.4,29.70,North,-999,-999.0,-999.0,52,0.00,,,0.00,meteohub,2013-02-13 20:37:00,
2013-02-13 14:42:00,40.8,25.0,29.70,North,-999,-999.0,-999.0,53,0.00,,,0.00,meteohub,2013-02-13 20:42:00,
2013-02-13 14:47:00,41.7,25.3,29.70,North,-999,-999.0,-999.0,52,0.00,,,0.00,meteohub,2013-02-13 20:47:00,
2013-02-13 14:52:00,41.9,25.5,29.70,North,-999,-999.0,-999.0,52,0.00,,,0.00,meteohub,2013-02-13 20:52:00,
2013-02-13 14:57:00,41.5,25.7,29.70,North,-999,-999.0,-999.0,53,0.00,,,0.00,meteohub,2013-02-13 20:57:00,
2013-02-13 15:02:00,41.5,25.7,29.70,North,-999,-999.0,-999.0,53,0.00,,,0.00,meteohub,2013-02-13 21:02:00,
2013-02-13 15:07:00,41.2,25.9,29.70,North,-999,-999.0,-999.0,54,0.00,,,0.00,meteohub,2013-02-13 21:07:00,
2013-02-13 15:12:00,41.5,26.1,29.70,North,-999,-999.0,-999.0,54,0.00,,,0.00,meteohub,2013-02-13 21:12:00,
2013-02-13 15:17:00,42.6,27.1,29.70,North,-999,-999.0,-999.0,54,0.00,,,0.00,meteohub,2013-02-13 21:17:00,
2013-02-13 15:22:00,43.3,26.4,29.70,North,-999,-999.0,-999.0,51,0.00,,,0.00,meteohub,2013-02-13 21:22:00,
2013-02-13 15:27:00,43.0,25.7,29.70,North,-999,-999.0,-999.0,50,0.00,,,0.00,meteohub,2013-02-13 21:27:00,
2013-02-13 15:32:00,43.0,25.7,29.70,North,-999,-999.0,-999.0,50,0.00,,,0.00,meteohub,2013-02-13 21:32:00,
2013-02-13 15:37:00,42.3,25.3,29.70,North,-999,-999.0,-999.0,51,0.00,,,0.00,meteohub,2013-02-13 21:37:00,
2013-02-13 15:42:00,42.3,25.9,29.70,North,-999,-999.0,-999.0,52,0.00,,,0.00,meteohub,2013-02-13 21:42:00,
2013-02-13 15:47:00,42.1,25.7,29.70,North,-999,-999.0,-999.0,52,0.00,,,0.00,meteohub,2013-02-13 21:47:00,
2013-02-13 15:52:00,41.9,25.2,29.71,North,-999,-999.0,-999.0,51,0.00,,,0.00,meteohub,2013-02-13 21:52:00,
2013-02-13 15:57:00,40.8,25.0,29.71,North,-999,-999.0,-999.0,53,0.00,,,0.00,meteohub,2013-02-13 21:57:00,
2013-02-13 16:02:00,40.5,24.6,29.71,North,-999,-999.0,-999.0,53,0.00,,,0.00,meteohub,2013-02-13 22:02:00,
2013-02-13 16:07:00,40.1,24.8,29.71,North,-999,-999.0,-999.0,54,0.00,,,0.00,meteohub,2013-02-13 22:07:00,
2013-02-13 16:12:00,41.0,25.2,29.71,North,-999,-999.0,-999.0,53,0.00,,,0.00,meteohub,2013-02-13 22:12:00,
2013-02-13 16:17:00,41.0,24.8,29.71,North,-999,-999.0,-999.0,52,0.00,,,0.00,meteohub,2013-02-13 22:17:00,
2013-02-13 16:22:00,41.0,24.8,29.71,North,-999,-999.0,-999.0,52,0.00,,,0.00,meteohub,2013-02-13 22:22:00,
2013-02-13 16:27:00,40.3,24.4,29.71,North,-999,-999.0,-999.0,53,0.00,,,0.00,meteohub,2013-02-13 22:27:00,
2013-02-13 16:32:00,40.3,25.0,29.71,North,-999,-999.0,-999.0,54,0.00,,,0.00,meteohub,2013-02-13 22:32:00,
2013-02-13 16:37:00,40.3,25.0,29.71,North,-999,-999.0,-999.0,54,0.00,,,0.00,meteohub,2013-02-13 22:37:00,
2013-02-13 16:42:00,39.7,24.4,29.71,North,-999,-999.0,-999.0,54,0.00,,,0.00,meteohub,2013-02-13 22:42:00,
2013-02-13 16:47:00,39.6,24.8,29.71,North,-999,-999.0,-999.0,55,0.00,,,0.00,meteohub,2013-02-13 22:47:00,
2013-02-13 16:52:00,38.5,24.1,29.72,North,-999,-999.0,-999.0,56,0.00,,,0.00,meteohub,2013-02-13 22:52:00,
2013-02-13 16:57:00,37.6,24.1,29.72,North,-999,-999.0,-999.0,58,0.00,,,0.00,meteohub,2013-02-13 22:57:00,
2013-02-13 17:02:00,37.2,23.0,29.72,North,-999,-999.0,-999.0,56,0.00,,,0.00,meteohub,2013-02-13 23:02:00,
2013-02-13 17:07:00,36.9,23.0,29.72,North,-999,-999.0,-999.0,57,0.00,,,0.00,meteohub,2013-02-13 23:07:00,
2013-02-13 17:12:00,36.5,23.2,29.72,North,-999,-999.0,-999.0,58,0.00,,,0.00,meteohub,2013-02-13 23:12:00,
2013-02-13 17:17:00,36.1,22.8,29.72,North,-999,-999.0,-999.0,58,0.00,,,0.00,meteohub,2013-02-13 23:17:00,
2013-02-13 17:22:00,35.8,22.8,29.72,North,-999,-999.0,-999.0,59,0.00,,,0.00,meteohub,2013-02-13 23:22:00,
2013-02-13 17:27:00,35.6,22.6,29.72,North,-999,-999.0,-999.0,59,0.00,,,0.00,meteohub,2013-02-13 23:27:00,
2013-02-13 17:32:00,35.2,22.8,29.73,North,-999,-999.0,-999.0,60,0.00,,,0.00,meteohub,2013-02-13 23:32:00,
2013-02-13 17:37:00,35.1,23.0,29.73,North,-999,-999.0,-999.0,61,0.00,,,0.00,meteohub,2013-02-13 23:37:00,
2013-02-13 17:42:00,34.9,23.2,29.73,North,-999,-999.0,-999.0,62,0.00,,,0.00,meteohub,2013-02-13 23:42:00,
2013-02-13 17:47:00,34.7,23.0,29.73,North,-999,-999.0,-999.0,62,0.00,,,0.00,meteohub,2013-02-13 23:47:00,
2013-02-13 17:52:00,34.5,22.8,29.73,North,-999,-999.0,-999.0,62,0.00,,,0.00,meteohub,2013-02-13 23:52:00,
2013-02-13 17:57:00,34.5,23.2,29.73,North,-999,-999.0,-999.0,63,0.00,,,0.00,meteohub,2013-02-13 23:57:00,
2013-02-13 18:02:00,34.3,23.0,29.73,North,-999,-999.0,-999.0,63,0.00,,,0.00,meteohub,2013-02-14 00:02:00,
2013-02-13 18:07:00,34.2,22.8,29.73,North,-999,-999.0,-999.0,63,0.00,,,0.00,meteohub,2013-02-14 00:07:00,
2013-02-13 18:12:00,34.0,22.6,29.74,North,-999,-999.0,-999.0,63,0.00,,,0.00,meteohub,2013-02-14 00:12:00,
2013-02-13 18:17:00,34.0,23.0,29.73,North,-999,-999.0,-999.0,64,0.00,,,0.00,meteohub,2013-02-14 00:17:00,
2013-02-13 18:22:00,33.8,23.0,29.74,North,-999,-999.0,-999.0,64,0.00,,,0.00,meteohub,2013-02-14 00:22:00,
2013-02-13 18:27:00,33.8,23.0,29.73,North,-999,-999.0,-999.0,64,0.00,,,0.00,meteohub,2013-02-14 00:27:00,
2013-02-13 18:32:00,33.6,23.5,29.74,North,-999,-999.0,-999.0,66,0.00,,,0.00,meteohub,2013-02-14 00:32:00,
2013-02-13 18:37:00,33.4,23.4,29.74,North,-999,-999.0,-999.0,66,0.00,,,0.00,meteohub,2013-02-14 00:37:00,
2013-02-13 18:42:00,33.3,23.5,29.74,North,-999,-999.0,-999.0,67,0.00,,,0.00,meteohub,2013-02-14 00:42:00,
2013-02-13 18:52:00,33.1,23.7,29.74,North,-999,-999.0,-999.0,68,0.00,,,0.00,meteohub,2013-02-14 00:52:00,
2013-02-13 18:57:00,32.7,23.4,29.75,North,-999,-999.0,-999.0,68,0.00,,,0.00,meteohub,2013-02-14 00:57:00,
2013-02-13 19:02:00,32.5,23.5,29.75,North,-999,-999.0,-999.0,69,0.00,,,0.00,meteohub,2013-02-14 01:02:00,
2013-02-13 19:07:00,32.4,23.7,29.75,North,-999,-999.0,-999.0,70,0.00,,,0.00,meteohub,2013-02-14 01:07:00,
2013-02-13 19:12:00,32.4,23.7,29.75,North,-999,-999.0,-999.0,70,0.00,,,0.00,meteohub,2013-02-14 01:12:00,
2013-02-13 19:17:00,32.2,23.9,29.74,North,-999,-999.0,-999.0,71,0.00,,,0.00,meteohub,2013-02-14 01:17:00,
2013-02-13 19:22:00,32.2,23.9,29.75,North,-999,-999.0,-999.0,71,0.00,,,0.00,meteohub,2013-02-14 01:22:00,
2013-02-13 19:27:00,32.0,23.7,29.75,North,-999,-999.0,-999.0,71,0.00,,,0.00,meteohub,2013-02-14 01:27:00,
2013-02-13 19:32:00,31.8,24.1,29.75,North,-999,-999.0,-999.0,73,0.00,,,0.00,meteohub,2013-02-14 01:32:00,
2013-02-13 19:37:00,31.8,24.1,29.75,North,-999,-999.0,-999.0,73,0.00,,,0.00,meteohub,2013-02-14 01:37:00,
2013-02-13 19:42:00,31.8,24.1,29.74,North,-999,-999.0,-999.0,73,0.00,,,0.00,meteohub,2013-02-14 01:42:00,
2013-02-13 19:47:00,31.8,24.1,29.74,North,-999,-999.0,-999.0,73,0.00,,,0.00,meteohub,2013-02-14 01:47:00,
2013-02-13 19:52:00,31.8,24.1,29.74,North,-999,-999.0,-999.0,73,0.00,,,0.00,meteohub,2013-02-14 01:52:00,
2013-02-13 19:57:00,31.8,24.1,29.74,North,-999,-999.0,-999.0,73,0.00,,,0.00,meteohub,2013-02-14 01:57:00,
2013-02-13 20:02:00,31.8,24.4,29.74,North,-999,-999.0,-999.0,74,0.00,,,0.00,meteohub,2013-02-14 02:02:00,
2013-02-13 20:07:00,31.6,23.9,29.74,North,-999,-999.0,-999.0,73,0.00,,,0.00,meteohub,2013-02-14 02:07:00,
2013-02-13 20:12:00,31.5,23.9,29.74,North,-999,-999.0,-999.0,73,0.00,,,0.00,meteohub,2013-02-14 02:12:00,
2013-02-13 20:17:00,31.5,24.1,29.74,North,-999,-999.0,-999.0,74,0.00,,,0.00,meteohub,2013-02-14 02:17:00,
2013-02-13 20:22:00,31.5,24.1,29.75,North,-999,-999.0,-999.0,74,0.00,,,0.00,meteohub,2013-02-14 02:22:00,
2013-02-13 20:27:00,31.5,24.1,29.75,North,-999,-999.0,-999.0,74,0.00,,,0.00,meteohub,2013-02-14 02:27:00,
2013-02-13 20:32:00,31.6,24.3,29.74,North,-999,-999.0,-999.0,74,0.00,,,0.00,meteohub,2013-02-14 02:32:00,
2013-02-13 20:37:00,31.6,24.3,29.75,North,-999,-999.0,-999.0,74,0.00,,,0.00,meteohub,2013-02-14 02:37:00,
2013-02-13 20:42:00,31.6,24.3,29.75,North,-999,-999.0,-999.0,74,0.00,,,0.00,meteohub,2013-02-14 02:42:00,
2013-02-13 20:47:00,31.6,24.3,29.74,North,-999,-999.0,-999.0,74,0.00,,,0.00,meteohub,2013-02-14 02:47:00,
2013-02-13 20:52:00,31.5,24.1,29.74,North,-999,-999.0,-999.0,74,0.00,,,0.00,meteohub,2013-02-14 02:52:00,
2013-02-13 20:57:00,31.5,24.1,29.74,North,-999,-999.0,-999.0,74,0.00,,,0.00,meteohub,2013-02-14 02:57:00,
2013-02-13 21:02:00,31.5,24.4,29.74,North,-999,-999.0,-999.0,75,0.00,,,0.00,meteohub,2013-02-14 03:02:00,
2013-02-13 21:07:00,31.3,24.3,29.74,North,-999,-999.0,-999.0,75,0.00,,,0.00,meteohub,2013-02-14 03:07:00,
2013-02-13 21:12:00,31.5,24.4,29.74,North,-999,-999.0,-999.0,75,0.00,,,0.00,meteohub,2013-02-14 03:12:00,
2013-02-13 21:17:00,31.3,24.3,29.74,North,-999,-999.0,-999.0,75,0.00,,,0.00,meteohub,2013-02-14 03:17:00,
2013-02-13 21:22:00,31.5,24.4,29.74,North,-999,-999.0,-999.0,75,0.00,,,0.00,meteohub,2013-02-14 03:22:00,
2013-02-13 21:27:00,31.5,24.4,29.74,North,-999,-999.0,-999.0,75,0.00,,,0.00,meteohub,2013-02-14 03:27:00,
2013-02-13 21:32:00,31.5,24.4,29.74,North,-999,-999.0,-999.0,75,0.00,,,0.00,meteohub,2013-02-14 03:32:00,
2013-02-13 21:37:00,31.3,24.3,29.74,North,-999,-999.0,-999.0,75,0.00,,,0.00,meteohub,2013-02-14 03:37:00,
2013-02-13 21:42:00,31.1,24.1,29.74,North,-999,-999.0,-999.0,75,0.00,,,0.00,meteohub,2013-02-14 03:42:00,
2013-02-13 21:47:00,31.1,24.1,29.74,North,-999,-999.0,-999.0,75,0.00,,,0.00,meteohub,2013-02-14 03:47:00,
2013-02-13 21:52:00,31.1,24.1,29.74,North,-999,-999.0,-999.0,75,0.00,,,0.00,meteohub,2013-02-14 03:52:00,
2013-02-13 21:57:00,31.1,24.1,29.74,North,-999,-999.0,-999.0,75,0.00,,,0.00,meteohub,2013-02-14 03:57:00,
2013-02-13 22:02:00,31.3,24.3,29.74,North,-999,-999.0,-999.0,75,0.00,,,0.00,meteohub,2013-02-14 04:02:00,
2013-02-13 22:07:00,31.5,24.8,29.74,North,-999,-999.0,-999.0,76,0.00,,,0.00,meteohub,2013-02-14 04:07:00,
2013-02-13 22:12:00,31.6,25.0,29.74,North,-999,-999.0,-999.0,76,0.00,,,0.00,meteohub,2013-02-14 04:12:00,
2013-02-13 22:17:00,32.0,25.0,29.73,North,-999,-999.0,-999.0,75,0.00,,,0.00,meteohub,2013-02-14 04:17:00,
2013-02-13 22:22:00,32.0,25.0,29.73,North,-999,-999.0,-999.0,75,0.00,,,0.00,meteohub,2013-02-14 04:22:00,
2013-02-13 22:27:00,32.2,25.2,29.73,North,-999,-999.0,-999.0,75,0.00,,,0.00,meteohub,2013-02-14 04:27:00,
2013-02-13 22:32:00,32.4,25.3,29.73,North,-999,-999.0,-999.0,75,0.00,,,0.00,meteohub,2013-02-14 04:32:00,
2013-02-13 22:37:00,32.4,25.3,29.73,North,-999,-999.0,-999.0,75,0.00,,,0.00,meteohub,2013-02-14 04:37:00,
2013-02-13 22:42:00,32.4,25.3,29.73,North,-999,-999.0,-999.0,75,0.00,,,0.00,meteohub,2013-02-14 04:42:00,
2013-02-13 22:47:00,32.4,25.3,29.73,North,-999,-999.0,-999.0,75,0.00,,,0.00,meteohub,2013-02-14 04:47:00,
2013-02-13 22:52:00,32.4,25.3,29.73,North,-999,-999.0,-999.0,75,0.00,,,0.00,meteohub,2013-02-14 04:52:00,
2013-02-13 22:57:00,32.4,25.3,29.73,North,-999,-999.0,-999.0,75,0.00,,,0.00,meteohub,2013-02-14 04:57:00,
2013-02-13 23:02:00,32.4,25.3,29.73,North,-999,-999.0,-999.0,75,0.00,,,0.00,meteohub,2013-02-14 05:02:00,
2013-02-13 23:07:00,32.5,25.5,29.73,North,-999,-999.0,-999.0,75,0.00,,,0.00,meteohub,2013-02-14 05:07:00,
2013-02-13 23:12:00,32.5,25.5,29.73,North,-999,-999.0,-999.0,75,0.00,,,0.00,meteohub,2013-02-14 05:12:00,
2013-02-13 23:17:00,32.5,25.5,29.73,North,-999,-999.0,-999.0,75,0.00,,,0.00,meteohub,2013-02-14 05:17:00,
2013-02-13 23:22:00,32.5,25.5,29.72,North,-999,-999.0,-999.0,75,0.00,,,0.00,meteohub,2013-02-14 05:22:00,
2013-02-13 23:27:00,32.7,26.1,29.72,North,-999,-999.0,-999.0,76,0.00,,,0.00,meteohub,2013-02-14 05:27:00,
2013-02-13 23:32:00,32.7,26.1,29.72,North,-999,-999.0,-999.0,76,0.00,,,0.00,meteohub,2013-02-14 05:32:00,
2013-02-13 23:37:00,32.7,26.1,29.72,North,-999,-999.0,-999.0,76,0.00,,,0.00,meteohub,2013-02-14 05:37:00,
2013-02-13 23:42:00,32.9,26.2,29.72,North,-999,-999.0,-999.0,76,0.00,,,0.00,meteohub,2013-02-14 05:42:00,
2013-02-13 23:47:00,32.9,26.2,29.72,North,-999,-999.0,-999.0,76,0.00,,,0.00,meteohub,2013-02-14 05:47:00,
2013-02-13 23:52:00,33.1,26.4,29.71,North,-999,-999.0,-999.0,76,0.00,,,0.00,meteohub,2013-02-14 05:52:00,
2013-02-13 23:57:00,33.3,26.6,29.72,North,-999,-999.0,-999.0,76,0.00,,,0.00,meteohub,2013-02-14 05:57:00,